Location: *
(55.5817°S, 142.4781°W)
Time: 07:38:42
(UTC+00:00)

SJ-12 - Pass Details

Date: 29 April 2025
Orbit: 525 x 536 km, 97.8° (Epoch: 19 May)

Event Time Altitude Azimuth Distance (km) Brightness Sun altitude
Rises 14:29:03 0° 13° (NNE) 2,696 7.5 -20.3°
Reaches altitude 10° 14:31:09 10° 12° (NNE) 1,814 6.5 -20.0°
Maximum altitude 14:35:04 78° 285° (WNW) 568 3.7 -19.4°
Drops below altitude 10° 14:39:04 10° 197° (SSW) 1,843 6.3 -18.8°
Sets 14:41:13 0° 195° (SSW) 2,745 7.2 -18.5°
